| time (UTC) | temp C | wind direction | speed KPH | gust KPH | rain 1hr cm | rain 24hr cm | rain mn cm | humidity % | barometer mb |
| 20260510130036 | 20 | 11 | 0.0 | 3.2 | 0.00 | 0.10 | 0.08 | 93 | 1014.8 |
| 20260510130029 | 20 | 11 | 0.0 | 4.8 | 0.00 | 0.10 | 0.08 | 93 | 1015.6 |
| 20260510124533 | 20 | 12 | 1.6 | 4.8 | 0.00 | 0.10 | 0.08 | 93 | 1014.7 |
| 20260510124529 | 20 | 13 | 1.6 | 4.8 | 0.00 | 0.10 | 0.08 | 93 | 1015.4 |
| 20260510123034 | 20 | 13 | 0.0 | 0.0 | 0.00 | 0.10 | 0.08 | 94 | 1014.3 |
| 20260510123032 | 20 | 0 | 0.0 | 1.6 | 0.00 | 0.10 | 0.08 | 93 | 1015.1 |
| 20260510121532 | 19 | 13 | 1.6 | 3.2 | 0.03 | 0.10 | 0.08 | 93 | 1014.3 |
| 20260510121529 | 19 | 13 | 1.6 | 3.2 | 0.03 | 0.10 | 0.08 | 93 | 1015.1 |
| 20260510120031 | 19 | 13 | 0.0 | 0.0 | 0.03 | 0.10 | 0.08 | 93 | 1014.4 |
| 20260510114531 | 19 | 13 | 0.0 | 1.6 | 0.03 | 0.10 | 0.08 | 93 | 1014.4 |
| 20260510114529 | 19 | 13 | 0.0 | 1.6 | 0.03 | 0.10 | 0.08 | 93 | 1015.2 |
| 20260510113037 | 19 | 13 | 0.0 | 0.0 | 0.03 | 0.10 | 0.08 | 93 | 1014.3 |
| 20260510113029 | 19 | 0 | 0.0 | 0.0 | 0.03 | 0.10 | 0.08 | 93 | 1015.1 |
| 20260510111530 | 19 | 0 | 0.0 | 0.0 | 0.00 | 0.08 | 0.05 | 92 | 1014.8 |
| 20260510111527 | 19 | 13 | 0.0 | 0.0 | 0.00 | 0.08 | 0.05 | 93 | 1014.1 |
| 20260510110039 | 19 | 13 | 0.0 | 0.0 | 0.00 | 0.08 | 0.05 | 93 | 1013.9 |
| 20260510110030 | 19 | 0 | 0.0 | 0.0 | 0.00 | 0.08 | 0.05 | 92 | 1014.7 |
| 20260510104530 | 19 | 0 | 0.0 | 4.8 | 0.00 | 0.08 | 0.05 | 92 | 1014.6 |
| 20260510104524 | 19 | 13 | 0.0 | 4.8 | 0.00 | 0.08 | 0.05 | 93 | 1013.9 |
| 20260510103029 | 19 | 0 | 0.0 | 0.0 | 0.00 | 0.08 | 0.05 | 92 | 1014.2 |
| 20260510103023 | 19 | 13 | 0.0 | 0.0 | 0.00 | 0.08 | 0.05 | 92 | 1013.5 |
| 20260510101531 | 19 | 0 | 0.0 | 4.8 | 0.00 | 0.08 | 0.05 | 92 | 1014.1 |
| 20260510101521 | 19 | 13 | 0.0 | 4.8 | 0.00 | 0.08 | 0.05 | 92 | 1013.3 |
| 20260510100030 | 19 | 0 | 0.0 | 1.6 | 0.00 | 0.08 | 0.05 | 92 | 1014.1 |
| 20260510100021 | 19 | 23 | 0.0 | 1.6 | 0.00 | 0.08 | 0.05 | 92 | 1013.3 |
| 20260510094543 | 19 | 0 | 0.0 | 0.0 | 0.00 | 0.08 | 0.05 | 92 | 1013.9 |
| 20260510094532 | 19 | 24 | 0.0 | 0.0 | 0.00 | 0.08 | 0.05 | 92 | 1013.1 |
| 20260510093035 | 19 | 0 | 0.0 | 0.0 | 0.00 | 0.08 | 0.05 | 92 | 1013.9 |
| 20260510093020 | 19 | 24 | 0.0 | 0.0 | 0.00 | 0.08 | 0.05 | 92 | 1013.0 |
| 20260510091539 | 19 | 0 | 0.0 | 0.0 | 0.00 | 0.08 | 0.05 | 91 | 1013.7 |
| 20260510091518 | 19 | 24 | 0.0 | 0.0 | 0.00 | 0.08 | 0.05 | 92 | 1012.9 |
| 20260510090033 | 19 | 0 | 0.0 | 0.0 | 0.00 | 0.08 | 0.05 | 91 | 1013.7 |
| 20260510090017 | 19 | 25 | 0.0 | 0.0 | 0.00 | 0.08 | 0.05 | 92 | 1012.9 |
| 20260510084534 | 19 | 0 | 0.0 | 0.0 | 0.00 | 0.08 | 0.05 | 91 | 1013.2 |
| 20260510084516 | 19 | 24 | 0.0 | 0.0 | 0.00 | 0.08 | 0.05 | 92 | 1012.5 |
| 20260510083048 | 19 | 0 | 0.0 | 0.0 | 0.00 | 0.08 | 0.05 | 91 | 1013.0 |
| 20260510083016 | 19 | 22 | 0.0 | 0.0 | 0.00 | 0.08 | 0.05 | 92 | 1012.2 |
| 20260510081531 | 19 | 0 | 0.0 | 0.0 | 0.03 | 0.08 | 0.05 | 91 | 1013.3 |
| 20260510081519 | 19 | 22 | 0.0 | 0.0 | 0.03 | 0.08 | 0.05 | 92 | 1012.5 |
| 20260510080032 | 20 | 22 | 0.0 | 0.0 | 0.03 | 0.08 | 0.05 | 91 | 1012.7 |
| 20260510080029 | 20 | 0 | 0.0 | 0.0 | 0.03 | 0.08 | 0.05 | 91 | 1013.5 |
| 20260510074532 | 20 | 0 | 0.0 | 0.0 | 0.03 | 0.08 | 0.05 | 91 | 1013.3 |
| 20260510074513 | 20 | 24 | 0.0 | 0.0 | 0.03 | 0.08 | 0.05 | 91 | 1012.5 |
| 20260510073030 | 20 | 0 | 0.0 | 0.0 | 0.05 | 0.08 | 0.05 | 91 | 1013.2 |
| 20260510073015 | 20 | 26 | 0.0 | 0.0 | 0.05 | 0.08 | 0.05 | 91 | 1012.4 |
| 20260510071537 | 20 | 0 | 0.0 | 0.0 | 0.03 | 0.05 | 0.03 | 91 | 1013.2 |
| 20260510071518 | 20 | 25 | 0.0 | 0.0 | 0.03 | 0.05 | 0.03 | 91 | 1012.4 |
| 20260510070031 | 20 | 0 | 0.0 | 0.0 | 0.03 | 0.05 | 0.03 | 91 | 1012.7 |
| 20260510070012 | 20 | 25 | 0.0 | 0.0 | 0.03 | 0.05 | 0.03 | 91 | 1011.9 |
| 20260510064530 | 20 | 0 | 0.0 | 0.0 | 0.03 | 0.05 | 0.03 | 90 | 1013.0 |
| 20260510064511 | 20 | 15 | 0.0 | 0.0 | 0.03 | 0.05 | 0.03 | 90 | 1012.3 |
| 20260510063028 | 20 | 0 | 0.0 | 0.0 | 0.00 | 0.03 | 0.00 | 90 | 1013.4 |
| 20260510063008 | 20 | 15 | 0.0 | 0.0 | 0.00 | 0.03 | 0.00 | 90 | 1012.7 |
| 20260510061533 | 20 | 0 | 0.0 | 1.6 | 0.00 | 0.03 | 0.00 | 89 | 1013.3 |
| 20260510061507 | 20 | 15 | 0.0 | 0.0 | 0.00 | 0.03 | 0.00 | 90 | 1012.5 |
| 20260510060038 | 20 | 0 | 0.0 | 0.0 | 0.00 | 0.03 | 0.00 | 89 | 1013.4 |
| 20260510060018 | 20 | 15 | 0.0 | 0.0 | 0.00 | 0.03 | 0.00 | 90 | 1012.7 |
| 20260510054537 | 20 | 0 | 0.0 | 1.6 | 0.00 | 0.03 | 0.00 | 89 | 1013.5 |
| 20260510054509 | 20 | 15 | 0.0 | 1.6 | 0.00 | 0.03 | 0.00 | 89 | 1012.7 |
| 20260510053029 | 20 | 0 | 0.0 | 0.0 | 0.00 | 0.03 | 0.00 | 89 | 1013.7 |
| 20260510053004 | 20 | 15 | 0.0 | 0.0 | 0.00 | 0.03 | 0.00 | 89 | 1012.9 |
| 20260510051533 | 20 | 0 | 0.0 | 3.2 | 0.00 | 0.03 | 0.00 | 89 | 1013.8 |
| 20260510051504 | 20 | 15 | 0.0 | 3.2 | 0.00 | 0.03 | 0.00 | 89 | 1013.0 |
| 20260510050031 | 20 | 15 | 0.0 | 3.2 | 0.00 | 0.03 | 0.00 | 89 | 1013.7 |
| 20260510050003 | 20 | 15 | 0.0 | 3.2 | 0.00 | 0.10 | 0.00 | 89 | 1012.9 |
| 20260510044530 | 20 | 0 | 0.0 | 0.0 | 0.00 | 0.10 | 0.00 | 89 | 1014.0 |
| 20260510044503 | 20 | 15 | 0.0 | 0.0 | 0.00 | 0.10 | 0.00 | 89 | 1013.1 |
| 20260510043059 | 20 | 15 | 0.0 | 4.8 | 0.00 | 0.10 | 0.00 | 89 | 1012.8 |
| 20260510043033 | 20 | 0 | 0.0 | 4.8 | 0.00 | 0.10 | 0.00 | 89 | 1013.7 |
| 20260510041604 | 21 | 15 | 0.0 | 1.6 | 0.00 | 0.10 | 0.00 | 89 | 1012.6 |
| 20260510041528 | 21 | 0 | 0.0 | 1.6 | 0.00 | 0.10 | 0.00 | 89 | 1013.5 |
| 20260510040104 | 21 | 15 | 0.0 | 3.2 | 0.00 | 0.10 | 0.00 | 89 | 1012.4 |
| 20260510040030 | 21 | 0 | 0.0 | 3.2 | 0.00 | 0.10 | 0.00 | 88 | 1013.2 |
| 20260510034554 | 21 | 15 | 0.0 | 0.0 | 0.00 | 0.25 | 0.10 | 89 | 1012.5 |
| 20260510034528 | 21 | 0 | 0.0 | 0.0 | 0.00 | 0.25 | 0.10 | 88 | 1013.4 |
| 20260510033100 | 21 | 15 | 0.0 | 0.0 | 0.00 | 0.25 | 0.10 | 89 | 1012.3 |
| 20260510033029 | 21 | 0 | 0.0 | 0.0 | 0.00 | 0.25 | 0.10 | 88 | 1013.1 |
| 20260510031555 | 21 | 15 | 0.0 | 0.0 | 0.00 | 0.25 | 0.10 | 89 | 1012.2 |
| 20260510031531 | 21 | 0 | 0.0 | 0.0 | 0.00 | 0.25 | 0.10 | 88 | 1013.0 |
| 20260510030059 | 21 | 15 | 0.0 | 0.0 | 0.00 | 0.25 | 0.10 | 88 | 1012.0 |
| 20260510030029 | 21 | 0 | 0.0 | 0.0 | 0.00 | 0.25 | 0.10 | 88 | 1012.8 |
| 20260510024552 | 21 | 15 | 0.0 | 0.0 | 0.00 | 0.30 | 0.10 | 88 | 1012.3 |
| 20260510024530 | 21 | 0 | 0.0 | 0.0 | 0.00 | 0.30 | 0.10 | 88 | 1013.1 |
| 20260510023051 | 21 | 15 | 0.0 | 1.6 | 0.00 | 0.30 | 0.10 | 88 | 1012.3 |
| 20260510023028 | 21 | 0 | 0.0 | 1.6 | 0.00 | 0.30 | 0.10 | 87 | 1013.0 |
| 20260510021641 | 21 | 15 | 0.0 | 0.0 | 0.00 | 0.30 | 0.10 | 88 | 1012.0 |
| 20260510021532 | 21 | 0 | 0.0 | 4.8 | 0.00 | 0.30 | 0.10 | 87 | 1012.8 |
| 20260510020057 | 21 | 15 | 0.0 | 0.0 | 0.00 | 0.30 | 0.10 | 88 | 1012.1 |
| 20260510020032 | 21 | 0 | 0.0 | 0.0 | 0.00 | 0.30 | 0.10 | 87 | 1012.8 |
| 20260510014557 | 21 | 15 | 0.0 | 0.0 | 0.00 | 0.30 | 0.10 | 88 | 1011.8 |
| 20260510014535 | 21 | 0 | 0.0 | 1.6 | 0.00 | 0.30 | 0.10 | 87 | 1012.5 |
| 20260510013059 | 21 | 16 | 0.0 | 1.6 | 0.00 | 0.30 | 0.10 | 87 | 1011.9 |
| 20260510013028 | 21 | 0 | 0.0 | 1.6 | 0.00 | 0.30 | 0.10 | 87 | 1012.7 |
| 20260510011550 | 21 | 16 | 0.0 | 3.2 | 0.00 | 0.30 | 0.10 | 87 | 1011.8 |
| 20260510011531 | 21 | 0 | 0.0 | 3.2 | 0.00 | 0.30 | 0.10 | 87 | 1012.6 |
| 20260510010056 | 21 | 16 | 0.0 | 4.8 | 0.00 | 0.30 | 0.10 | 87 | 1011.7 |
| 20260510010030 | 21 | 0 | 0.0 | 4.8 | 0.00 | 0.30 | 0.10 | 87 | 1012.4 |
| 20260510004549 | 21 | 15 | 0.0 | 0.0 | 0.00 | 0.30 | 0.10 | 87 | 1011.5 |
| 20260510004530 | 21 | 0 | 0.0 | 0.0 | 0.00 | 0.30 | 0.10 | 86 | 1012.2 |
| 20260510003048 | 21 | 16 | 0.0 | 0.0 | 0.00 | 0.30 | 0.10 | 86 | 1011.4 |
| 20260510003038 | 21 | 0 | 0.0 | 0.0 | 0.00 | 0.30 | 0.10 | 86 | 1012.2 |
| 20260510001548 | 21 | 17 | 0.0 | 0.0 | 0.00 | 0.30 | 0.10 | 86 | 1011.1 |
| 20260510001530 | 21 | 0 | 0.0 | 0.0 | 0.00 | 0.30 | 0.10 | 86 | 1012.0 |
| 20260510000049 | 21 | 17 | 0.0 | 0.0 | 0.00 | 0.30 | 0.10 | 86 | 1010.9 |
| 20260510000030 | 21 | 0 | 0.0 | 0.0 | 0.00 | 0.30 | 0.10 | 85 | 1011.7 |
| 20260509234547 | 21 | 17 | 0.0 | 0.0 | 0.00 | 0.30 | 0.10 | 86 | 1011.0 |
| 20260509234538 | 21 | 0 | 0.0 | 1.6 | 0.00 | 0.30 | 0.10 | 85 | 1011.9 |
| 20260509233046 | 21 | 17 | 0.0 | 1.6 | 0.00 | 0.30 | 0.10 | 86 | 1010.9 |
| 20260509233032 | 21 | 0 | 0.0 | 4.8 | 0.00 | 0.30 | 0.10 | 85 | 1011.7 |
| 20260509231549 | 21 | 9 | 0.0 | 0.0 | 0.00 | 0.30 | 0.10 | 86 | 1011.0 |
| 20260509231535 | 21 | 0 | 0.0 | 0.0 | 0.00 | 0.30 | 0.10 | 85 | 1011.9 |
| 20260509230050 | 21 | 9 | 0.0 | 0.0 | 0.00 | 0.30 | 0.10 | 86 | 1010.6 |
| 20260509230031 | 21 | 0 | 0.0 | 0.0 | 0.00 | 0.30 | 0.10 | 85 | 1011.4 |
| 20260509224545 | 21 | 9 | 0.0 | 0.0 | 0.00 | 0.30 | 0.10 | 86 | 1010.7 |
| 20260509224533 | 21 | 0 | 0.0 | 0.0 | 0.00 | 0.30 | 0.10 | 85 | 1011.5 |
| 20260509223047 | 21 | 9 | 0.0 | 0.0 | 0.00 | 0.30 | 0.10 | 86 | 1010.6 |
| 20260509223031 | 21 | 0 | 0.0 | 0.0 | 0.00 | 0.30 | 0.10 | 85 | 1011.5 |
| 20260509221544 | 21 | 9 | 0.0 | 0.0 | 0.00 | 0.30 | 0.10 | 86 | 1010.4 |
| 20260509221530 | 21 | 0 | 0.0 | 0.0 | 0.00 | 0.30 | 0.10 | 85 | 1011.2 |
| 20260509220048 | 21 | 9 | 0.0 | 0.0 | 0.00 | 0.30 | 0.10 | 85 | 1010.8 |
| 20260509220030 | 21 | 0 | 0.0 | 0.0 | 0.00 | 0.30 | 0.10 | 84 | 1011.6 |
| 20260509214546 | 21 | 9 | 0.0 | 1.6 | 0.00 | 0.30 | 0.10 | 84 | 1010.7 |
| 20260509214531 | 21 | 0 | 0.0 | 1.6 | 0.00 | 0.30 | 0.10 | 84 | 1011.6 |
| 20260509213053 | 21 | 9 | 0.0 | 4.8 | 0.00 | 0.30 | 0.10 | 84 | 1011.0 |
| 20260509213030 | 21 | 0 | 0.0 | 4.8 | 0.00 | 0.30 | 0.10 | 83 | 1012.0 |
| 20260509211543 | 22 | 9 | 0.0 | 6.4 | 0.00 | 0.30 | 0.10 | 83 | 1011.3 |
| 20260509211528 | 22 | 0 | 1.6 | 6.4 | 0.00 | 0.30 | 0.10 | 82 | 1012.2 |
| 20260509210048 | 22 | 9 | 1.6 | 8.0 | 0.00 | 0.30 | 0.10 | 82 | 1010.9 |
| 20260509210030 | 22 | 9 | 0.0 | 8.0 | 0.00 | 0.30 | 0.10 | 82 | 1011.8 |
| 20260509204541 | 22 | 9 | 1.6 | 4.8 | 0.00 | 0.30 | 0.10 | 82 | 1010.9 |
| 20260509204530 | 22 | 9 | 1.6 | 4.8 | 0.00 | 0.30 | 0.10 | 81 | 1011.7 |
| 20260509203041 | 22 | 9 | 4.8 | 9.7 | 0.00 | 0.30 | 0.10 | 81 | 1011.0 |
| 20260509203039 | 22 | 9 | 3.2 | 11.3 | 0.00 | 0.30 | 0.10 | 81 | 1011.9 |
| 20260509201541 | 22 | 9 | 4.8 | 9.7 | 0.00 | 0.30 | 0.10 | 80 | 1011.0 |
| 20260509201530 | 22 | 9 | 4.8 | 11.3 | 0.00 | 0.30 | 0.10 | 80 | 1011.8 |
| 20260509200047 | 22 | 9 | 3.2 | 8.0 | 0.03 | 0.30 | 0.10 | 79 | 1010.9 |
| 20260509200029 | 22 | 9 | 3.2 | 8.0 | 0.03 | 0.30 | 0.10 | 78 | 1011.8 |
| 20260509194552 | 23 | 9 | 1.6 | 8.0 | 0.03 | 0.30 | 0.10 | 78 | 1011.0 |
| 20260509194531 | 23 | 9 | 3.2 | 8.0 | 0.03 | 0.30 | 0.10 | 78 | 1011.9 |
| 20260509193040 | 22 | 11 | 0.0 | 1.6 | 0.03 | 0.30 | 0.10 | 78 | 1010.5 |
| 20260509193037 | 22 | 0 | 0.0 | 1.6 | 0.03 | 0.30 | 0.10 | 77 | 1011.4 |
| 20260509191538 | 23 | 13 | 0.0 | 4.8 | 0.03 | 0.30 | 0.10 | 79 | 1010.5 |
| 20260509190040 | 23 | 13 | 0.0 | 1.6 | 0.00 | 0.28 | 0.08 | 77 | 1010.9 |
| 20260509190029 | 23 | 0 | 0.0 | 1.6 | 0.00 | 0.28 | 0.08 | 77 | 1011.8 |
| 20260509184538 | 24 | 0 | 0.0 | 1.6 | 0.00 | 0.28 | 0.08 | 74 | 1011.9 |
| 20260509183036 | 25 | 14 | 0.0 | 3.2 | 0.00 | 0.28 | 0.08 | 73 | 1011.1 |
| 20260509183032 | 25 | 0 | 0.0 | 3.2 | 0.00 | 0.28 | 0.08 | 72 | 1012.0 |
| 20260509181537 | 25 | 19 | 0.0 | 4.8 | 0.00 | 0.28 | 0.08 | 70 | 1011.3 |
| 20260509181529 | 25 | 0 | 0.0 | 4.8 | 0.00 | 0.28 | 0.08 | 70 | 1012.1 |
| 20260509180049 | 25 | 9 | 0.0 | 6.4 | 0.00 | 0.28 | 0.08 | 69 | 1011.3 |
| 20260509180032 | 25 | 0 | 0.0 | 6.4 | 0.00 | 0.28 | 0.08 | 69 | 1012.2 |
| 20260509174537 | 25 | 9 | 1.6 | 6.4 | 0.00 | 0.28 | 0.08 | 69 | 1011.3 |
| 20260509174531 | 25 | 9 | 1.6 | 6.4 | 0.00 | 0.28 | 0.08 | 68 | 1012.2 |
| 20260509173051 | 26 | 9 | 1.6 | 4.8 | 0.00 | 0.28 | 0.08 | 67 | 1011.3 |
| 20260509173029 | 26 | 0 | 0.0 | 4.8 | 0.00 | 0.28 | 0.08 | 66 | 1012.2 |
| 20260509171634 | 26 | 9 | 0.0 | 4.8 | 0.00 | 0.28 | 0.08 | 67 | 1011.4 |
| 20260509171531 | 26 | 9 | 0.0 | 4.8 | 0.00 | 0.28 | 0.08 | 67 | 1012.1 |
| 20260509170037 | 26 | 0 | 0.0 | 3.2 | 0.00 | 0.28 | 0.08 | 66 | 1012.3 |
| 20260509170034 | 26 | 11 | 0.0 | 3.2 | 0.00 | 0.28 | 0.08 | 66 | 1011.4 |
| 20260509164536 | 26 | 0 | 0.0 | 4.8 | 0.00 | 0.28 | 0.08 | 70 | 1012.4 |
| 20260509164531 | 26 | 12 | 0.0 | 4.8 | 0.00 | 0.28 | 0.08 | 70 | 1011.6 |
| 20260509163033 | 26 | 0 | 0.0 | 8.0 | 0.00 | 0.28 | 0.08 | 70 | 1012.5 |
| 20260509161534 | 25 | 9 | 0.0 | 3.2 | 0.00 | 0.28 | 0.08 | 76 | 1012.6 |
| 20260509161527 | 25 | 9 | 1.6 | 3.2 | 0.00 | 0.28 | 0.08 | 76 | 1011.8 |
| 20260509160036 | 24 | 13 | 0.0 | 6.4 | 0.00 | 0.28 | 0.08 | 77 | 1012.7 |
| 20260509160024 | 24 | 13 | 0.0 | 6.4 | 0.00 | 0.28 | 0.08 | 78 | 1011.8 |
| 20260509154528 | 23 | 0 | 0.0 | 0.0 | 0.00 | 0.28 | 0.08 | 80 | 1012.9 |
| 20260509154519 | 23 | 16 | 0.0 | 0.0 | 0.00 | 0.28 | 0.08 | 80 | 1012.1 |
| 20260509153038 | 23 | 0 | 0.0 | 1.6 | 0.00 | 0.28 | 0.08 | 81 | 1012.9 |
| 20260509153029 | 23 | 17 | 0.0 | 1.6 | 0.00 | 0.28 | 0.08 | 81 | 1012.2 |
| 20260509151530 | 22 | 0 | 0.0 | 4.8 | 0.00 | 0.28 | 0.08 | 83 | 1013.0 |
| 20260509151513 | 22 | 35 | 0.0 | 4.8 | 0.00 | 0.28 | 0.08 | 83 | 1012.2 |
| 20260509150031 | 22 | 0 | 0.0 | 1.6 | 0.00 | 0.28 | 0.08 | 84 | 1013.1 |
| 20260509150015 | 22 | 36 | 0.0 | 1.6 | 0.00 | 0.28 | 0.08 | 84 | 1012.4 |
| 20260509144532 | 22 | 24 | 0.0 | 4.8 | 0.00 | 0.28 | 0.08 | 84 | 1013.1 |
| 20260509144510 | 22 | 24 | 0.0 | 3.2 | 0.00 | 0.28 | 0.08 | 85 | 1012.4 |
| 20260509143031 | 22 | 0 | 0.0 | 1.6 | 0.00 | 0.28 | 0.08 | 89 | 1013.3 |
| 20260509143009 | 22 | 16 | 0.0 | 1.6 | 0.00 | 0.28 | 0.08 | 89 | 1012.5 |
| 20260509141531 | 21 | 0 | 0.0 | 3.2 | 0.00 | 0.28 | 0.08 | 91 | 1013.0 |
| 20260509141506 | 21 | 16 | 0.0 | 3.2 | 0.00 | 0.28 | 0.08 | 91 | 1012.2 |
| 20260509140032 | 21 | 0 | 0.0 | 3.2 | 0.00 | 0.28 | 0.08 | 93 | 1013.0 |
| 20260509140006 | 21 | 35 | 0.0 | 3.2 | 0.00 | 0.28 | 0.08 | 93 | 1012.1 |
| 20260509134531 | 21 | 0 | 0.0 | 0.0 | 0.00 | 0.28 | 0.08 | 94 | 1013.0 |
| 20260509134505 | 21 | 32 | 0.0 | 0.0 | 0.00 | 0.28 | 0.08 | 95 | 1012.1 |
| 20260509133100 | 21 | 24 | 0.0 | 0.0 | 0.00 | 0.28 | 0.08 | 95 | 1012.1 |
| 20260509133029 | 21 | 0 | 0.0 | 0.0 | 0.00 | 0.28 | 0.08 | 94 | 1013.0 |
| 20260509131600 | 21 | 45 | 0.0 | 0.0 | 0.00 | 0.28 | 0.08 | 95 | 1012.1 |
| 20260509131534 | 21 | 0 | 0.0 | 0.0 | 0.00 | 0.28 | 0.08 | 95 | 1012.9 |